Overview Statistics Trail Chart Weather Telemetry Raw packets
 

This is the latest recevied weather packets stored in our database for station/object N7IGG. If no packets are shown the sender has not sent any weather packets the latest 10 day(s).

<< 22 23 24 25 26 27 28 >>
Time Temp. Humidity Pressure Rain* Wind** Luminosity Snow
1778033991 18.33° C 74% 1014.8 hPa 0 mm - 71 W/m² -
1778033688 18.89° C 74% 1015 hPa 0 mm - 82 W/m² -
1778033385 18.89° C 75% 1015 hPa 0 mm - 95 W/m² -
1778033083 18.33° C 74% 1014.9 hPa 0 mm - 106 W/m² -
1778032780 17.78° C 75% 1015 hPa 0 mm - 114 W/m² -
1778032477 17.78° C 75% 1015 hPa 0 mm - 125 W/m² -
1778032174 17.78° C 74% 1015 hPa 0 mm - 137 W/m² -
1778031871 18.33° C 74% 1015.1 hPa 0 mm - 149 W/m² -
1778031567 18.33° C 74% 1015.2 hPa 0 mm - 165 W/m² -
1778031266 17.78° C 74% 1015.1 hPa 0 mm - 174 W/m² -
1778030962 18.33° C 73% 1015.1 hPa 0 mm - 176 W/m² -
1778030658 18.33° C 73% 1015 hPa 0 mm - 174 W/m² -
1778030355 17.22° C 75% 1015 hPa 0 mm - 169 W/m² -
1778030053 17.22° C 75% 1015.2 hPa 0 mm - 221 W/m² -
1778029749 17.78° C 75% 1015.2 hPa 0 mm - 230 W/m² -
1778029448 17.78° C 75% 1015.3 hPa 0 mm - 250 W/m² -
1778029144 17.78° C 75% 1015.2 hPa 0 mm - 234 W/m² -
1778028842 18.33° C 74% 1015.1 hPa 0 mm - 284 W/m² -
1778028537 17.78° C 76% 1015.3 hPa 0 mm - 287 W/m² -
1778028235 17.22° C 78% 1015.4 hPa 0 mm - 283 W/m² -
1778027931 16.67° C 78% 1015.3 hPa 0 mm - 297 W/m² -
1778027627 16.67° C 77% 1015.3 hPa 0 mm - 341 W/m² -
1778027324 16.67° C 77% 1015.3 hPa 0 mm - 331 W/m² -
1778027020 17.78° C 76% 1015.3 hPa 0 mm - 314 W/m² -
1778026716 17.22° C 78% 1015.5 hPa 0 mm - 329 W/m² -

* Rain latest hour (hover to see other rain measurements)
** Current wind speed in m/s (hover to see current wind gust speed)